Location: Oshawa
(43.9000°N, 78.8670°W)
Time: 04:25:00
(UTC-04:00)

Cosmos 1408 Rocket - Visible Passes

Search period start: 26 August 2016 00:00
Search period end: 05 September 2016 00:00
Orbit: 602 x 630 km, 82.6° (Epoch: 25 August)

Date Brightness Start Highest point End Pass type
(mag) Time Alt. Az. Time Alt. Az. Time Alt. Az.
26 Aug 5.9 00:29:50 10° NNW 00:31:28 22° NNW 00:31:28 22° NNW visible
26 Aug 5.9 23:09:22 10° NNE 23:10:44 16° NE 23:10:44 16° NE visible
27 Aug 6.2 00:46:35 10° NNW 00:47:49 17° NNW 00:47:49 17° NNW visible
27 Aug 5.7 23:25:22 10° N 23:27:06 21° NNE 23:27:06 21° NNE visible
28 Aug 6.5 01:03:40 10° NW 01:04:12 12° NW 01:04:12 12° NW visible
28 Aug 5.7 23:41:39 10° N 23:43:29 24° N 23:43:29 24° N visible
29 Aug 6.1 22:22:31 10° NE 22:22:47 11° NE 22:22:47 11° NE visible
29 Aug 5.9 23:58:10 10° NNW 23:59:52 23° NNW 23:59:52 23° NNW visible
30 Aug 5.8 22:37:45 10° NNE 22:39:11 16° NE 22:39:11 16° NE visible
31 Aug 6.1 00:14:55 10° NNW 00:16:16 18° NNW 00:16:16 18° NNW visible
31 Aug 5.5 22:53:43 10° N 22:55:35 22° NNE 22:55:35 22° NNE visible
01 Sep 6.5 00:31:58 10° NW 00:32:41 13° NW 00:32:41 13° NW visible
01 Sep 5.5 23:10:00 10° N 23:12:01 26° N 23:12:01 26° N visible
02 Sep 6.0 21:50:58 10° NE 21:51:21 11° NE 21:51:21 11° NE visible
02 Sep 5.7 23:26:30 10° NNW 23:28:26 25° NNW 23:28:26 25° NNW visible
03 Sep 5.6 22:06:07 10° NNE 22:07:47 17° NE 22:07:47 17° NE visible
03 Sep 6.0 23:43:14 10° NNW 23:44:53 21° NW 23:44:53 21° NW visible
04 Sep 5.3 22:22:04 10° N 22:24:14 24° NNE 22:24:14 24° NNE visible
